GFSSGP_500_temp_057.txt.gz
Temp
-7 -7 -6 -6 -6 -5 -5 -5 -6 -6 -6 -8 -7 -7 -7 -7 -7 -8 -6 -6 -6 -7 -7 -7 -6 -6 -6 -6 -6 -6 -5 -5 -5 -5 -6 -6 -6 -6 -6 -6 -6 -6 -6 -6 -6 -6 -7 -7 -7
-8 -7 -7 -6 -6 -5 -5 -6 -6 -7 -7 -8 -7 -7 -7 -8 -7 -6 -5 -6 -5 -7 -7 -7 -7 -6 -6 -6 -6 -5 -6 -6 -6 -6 -6 -6 -6 -6 -6 -6 -6 -6 -6 -6 -6 -7 -7 -7 -8
-9 -8 -7 -6 -6 -5 -6 -6 -6 -7 -8 -8 -7 -7 -7 -7 -7 -6 -6 -6 -6 -7 -7 -7 -7 -6 -6 -6 -6 -6 -6 -6 -6 -7 -6 -7 -7 -7 -7 -7 -7 -6 -7 -7 -7 -8 -8 -8 -9
-9 -9 -8 -7 -6 -6 -6 -7 -8 -8 -9 -8 -8 -8 -7 -7 -7 -6 -6 -6 -7 -7 -7 -8 -7 -7 -7 -7 -7 -7 -7 -6 -7 -7 -7 -7 -7 -7 -7 -7 -7 -7 -7 -7 -8 -8 -8 -9 -9
-10 -9 -8 -7 -7 -7 -7 -8 -8 -8 -9 -9 -8 -8 -8 -7 -7 -6 -6 -7 -7 -7 -7 -8 -7 -7 -7 -7 -7 -7 -7 -7 -8 -7 -7 -8 -8 -8 -8 -8 -8 -8 -8 -8 -8 -8 -9 -9 -9
-11 -10 -9 -8 -8 -7 -8 -8 -8 -9 -9 -9 -9 -9 -8 -7 -8 -6 -7 -7 -7 -7 -7 -8 -7 -7 -7 -7 -7 -7 -8 -8 -7 -8 -8 -8 -8 -8 -8 -8 -8 -8 -9 -9 -9 -9 -9 -9 -10
-12 -11 -10 -9 -8 -7 -8 -8 -8 -9 -9 -10 -9 -9 -9 -7 -7 -7 -7 -7 -7 -7 -7 -8 -8 -8 -8 -7 -7 -7 -8 -8 -8 -8 -8 -9 -9 -9 -8 -8 -8 -8 -9 -9 -9 -9 -9 -10 -10
-12 -11 -9 -9 -9 -8 -8 -9 -9 -9 -9 -9 -9 -9 -9 -8 -8 -7 -7 -7 -7 -8 -8 -8 -8 -8 -7 -8 -7 -7 -8 -8 -8 -8 -8 -9 -9 -9 -9 -9 -9 -9 -9 -9 -9 -9 -10 -11 -11
-12 -10 -9 -9 -9 -9 -8 -9 -9 -8 -8 -9 -9 -9 -9 -9 -9 -7 -7 -6 -7 -7 -7 -8 -8 -8 -8 -8 -8 -8 -8 -8 -8 -8 -9 -9 -9 -9 -9 -9 -9 -9 -9 -9 -9 -10 -11 -12 -12
-11 -9 -10 -10 -10 -9 -9 -9 -9 -9 -9 -10 -9 -10 -9 -9 -9 -8 -8 -7 -7 -8 -8 -8 -8 -8 -8 -8 -8 -8 -8 -8 -8 -8 -8 -9 -9 -10 -10 -10 -9 -10 -10 -10 -10 -10 -11 -12 -12
-11 -9 -10 -10 -10 -10 -10 -10 -9 -9 -9 -10 -9 -10 -10 -10 -10 -8 -8 -8 -8 -8 -8 -8 -8 -9 -9 -8 -8 -8 -8 -8 -8 -9 -9 -9 -10 -10 -10 -10 -10 -10 -10 -10 -10 -10 -11 -12 -13
-10 -10 -10 -10 -10 -10 -10 -11 -11 -10 -9 -9 -10 -9 -10 -10 -10 -9 -9 -8 -8 -8 -8 -9 -9 -8 -9 -8 -9 -8 -9 -8 -9 -9 -9 -9 -10 -10 -10 -10 -10 -10 -10 -10 -10 -10 -11 -12 -13
-10 -10 -10 -10 -10 -10 -11 -11 -11 -10 -10 -9 -9 -10 -9 -10 -10 -10 -10 -10 -9 -10 -9 -8 -8 -8 -8 -9 -9 -8 -9 -9 -9 -9 -9 -10 -10 -10 -10 -10 -10 -10 -10 -10 -10 -11 -12 -12 -13
-10 -10 -9 -10 -10 -10 -10 -10 -11 -10 -10 -9 -11 -11 -10 -10 -9 -10 -10 -10 -9 -9 -9 -8 -9 -8 -9 -10 -9 -9 -9 -9 -9 -9 -9 -10 -10 -10 -10 -10 -10 -10 -10 -10 -10 -11 -11 -12 -13
-11 -10 -9 -10 -10 -10 -11 -11 -10 -10 -10 -10 -10 -11 -11 -11 -10 -9 -10 -10 -9 -9 -9 -8 -9 -9 -9 -9 -8 -9 -9 -9 -9 -8 -9 -10 -10 -10 -10 -10 -10 -10 -10 -10 -10 -11 -11 -12 -13
-11 -11 -10 -11 -11 -11 -13 -10 -10 -10 -10 -11 -10 -11 -12 -11 -11 -10 -9 -9 -9 -10 -8 -7 -8 -8 -8 -9 -9 -9 -9 -9 -9 -9 -8 -9 -10 -10 -10 -10 -11 -10 -10 -10 -9 -10 -11 -12 -12
-12 -11 -11 -11 -12 -12 -13 -11 -10 -10 -11 -11 -11 -10 -11 -11 -11 -11 -10 -10 -10 -9 -9 -9 -9 -9 -9 -9 -10 -9 -10 -9 -9 -9 -9 -8 -9 -10 -10 -10 -10 -11 -10 -10 -10 -10 -10 -11 -11
-13 -12 -12 -11 -12 -14 -14 -12 -10 -11 -11 -11 -11 -10 -10 -11 -11 -12 -12 -11 -9 -9 -9 -10 -10 -10 -9 -9 -10 -10 -9 -9 -9 -9 -10 -9 -9 -10 -10 -10 -10 -10 -10 -11 -10 -11 -11 -11 -11
-12 -12 -12 -12 -12 -12 -12 -11 -9 -10 -10 -11 -11 -11 -11 -11 -11 -12 -12 -12 -12 -11 -10 -10 -10 -10 -10 -9 -9 -9 -9 -9 -9 -9 -9 -9 -9 -10 -10 -10 -10 -10 -10 -11 -10 -11 -12 -12 -12
-13 -13 -12 -12 -13 -13 -13 -12 -11 -10 -10 -10 -10 -10 -11 -11 -10 -11 -12 -12 -12 -11 -11 -11 -10 -10 -10 -9 -9 -9 -9 -9 -9 -9 -9 -10 -10 -10 -10 -10 -10 -10 -11 -11 -11 -11 -12 -12 -12
-14 -14 -13 -13 -14 -13 -13 -12 -11 -11 -11 -11 -11 -10 -10 -11 -10 -10 -11 -11 -12 -11 -11 -10 -10 -10 -9 -9 -9 -9 -9 -9 -9 -9 -10 -10 -10 -10 -10 -10 -10 -10 -11 -11 -11 -12 -12 -12 -12
-14 -16 -15 -15 -15 -14 -16 -11 -12 -11 -11 -11 -11 -12 -11 -11 -10 -10 -10 -11 -11 -11 -10 -10 -9 -9 -9 -9 -9 -9 -9 -9 -9 -9 -9 -10 -10 -10 -10 -10 -10 -10 -11 -11 -12 -12 -12 -12 -12
-15 -18 -17 -16 -16 -15 -14 -14 -11 -12 -11 -11 -12 -12 -12 -12 -12 -11 -11 -11 -11 -11 -9 -9 -8 -9 -8 -10 -10 -10 -9 -9 -9 -10 -10 -10 -10 -10 -10 -10 -10 -11 -11 -12 -12 -11 -12 -12 -12
-19 -20 -19 -19 -20 -19 -16 -19 -14 -13 -12 -12 -12 -12 -13 -12 -13 -13 -12 -11 -12 -11 -10 -9 -9 -8 -8 -10 -10 -9 -9 -9 -9 -10 -10 -10 -10 -10 -10 -10 -10 -11 -11 -11 -11 -11 -12 -11 -11
-21 -21 -21 -21 -20 -20 -20 -21 -18 -14 -14 -13 -13 -13 -14 -14 -14 -14 -13 -12 -11 -12 -11 -11 -10 -9 -8 -8 -9 -9 -10 -9 -9 -10 -9 -10 -10 -10 -10 -10 -10 -11 -11 -11 -11 -11 -11 -11 -11
-21 -22 -22 -21 -21 -20 -20 -20 -19 -18 -16 -15 -14 -14 -15 -15 -15 -14 -14 -13 -11 -11 -11 -11 -10 -9 -8 -8 -8 -9 -9 -9 -9 -9 -10 -9 -10 -10 -10 -10 -11 -11 -11 -11 -11 -11 -11 -11 -11
-21 -21 -22 -21 -20 -21 -20 -19 -19 -19 -19 -19 -16 -14 -15 -16 -15 -14 -15 -12 -10 -10 -10 -10 -10 -9 -9 -9 -8 -9 -9 -9 -9 -9 -9 -9 -10 -10 -10 -10 -11 -11 -11 -11 -11 -11 -12 -12 -12
-21 -21 -21 -21 -21 -21 -20 -19 -20 -20 -20 -20 -19 -16 -16 -16 -15 -15 -14 -13 -11 -10 -10 -10 -10 -9 -9 -9 -9 -9 -9 -9 -9 -9 -9 -10 -10 -10 -10 -10 -10 -10 -10 -11 -11 -11 -12 -12 -11
-21 -21 -21 -21 -21 -21 -20 -20 -20 -20 -20 -19 -19 -18 -17 -16 -15 -15 -15 -14 -12 -11 -10 -10 -10 -9 -9 -9 -9 -9 -9 -9 -8 -9 -10 -10 -10 -10 -10 -10 -10 -10 -11 -11 -11 -11 -12 -11 -11
-22 -21 -21 -21 -21 -21 -21 -20 -20 -20 -20 -19 -18 -17 -17 -16 -15 -15 -15 -14 -12 -11 -11 -11 -10 -9 -10 -9 -9 -9 -9 -9 -9 -9 -10 -10 -10 -10 -10 -10 -10 -10 -11 -11 -11 -11 -11 -11 -11

GFSSGP_500_temp_060.txt.gz
Temp
-8 -7 -7 -7 -6 -6 -5 -5 -6 -6 -7 -8 -8 -8 -8 -8 -8 -8 -7 -6 -7 -6 -7 -7 -7 -7 -6 -6 -6 -5 -5 -6 -6 -6 -5 -6 -6 -6 -6 -6 -6 -6 -6 -6 -6 -5 -6 -6 -6
-8 -8 -7 -7 -7 -6 -6 -6 -6 -7 -8 -8 -8 -8 -8 -8 -8 -8 -7 -7 -7 -6 -7 -8 -7 -7 -7 -6 -6 -6 -6 -6 -6 -6 -6 -6 -6 -6 -6 -7 -7 -7 -6 -7 -7 -7 -7 -7 -7
-9 -8 -8 -7 -6 -6 -6 -6 -7 -8 -8 -8 -8 -7 -8 -8 -8 -8 -7 -7 -7 -6 -7 -7 -7 -7 -7 -7 -6 -6 -6 -7 -7 -7 -7 -7 -7 -7 -7 -7 -7 -7 -7 -7 -7 -8 -8 -8 -8
-10 -9 -8 -7 -7 -6 -7 -7 -7 -8 -8 -8 -8 -8 -8 -8 -8 -7 -7 -7 -7 -7 -7 -7 -7 -7 -7 -7 -7 -7 -7 -7 -7 -7 -7 -7 -7 -7 -7 -8 -8 -8 -7 -8 -8 -8 -8 -8 -9
-12 -10 -9 -8 -7 -7 -7 -8 -8 -8 -8 -8 -9 -9 -9 -8 -8 -7 -7 -7 -7 -8 -7 -7 -8 -8 -8 -7 -7 -7 -7 -8 -8 -7 -7 -7 -7 -8 -8 -8 -8 -8 -8 -8 -8 -8 -9 -9 -9
-11 -11 -10 -9 -8 -7 -8 -8 -8 -8 -8 -9 -10 -9 -9 -9 -7 -7 -7 -7 -8 -7 -7 -7 -8 -8 -8 -7 -7 -7 -7 -7 -8 -8 -7 -7 -8 -8 -8 -9 -9 -9 -9 -9 -9 -9 -9 -9 -9
-11 -11 -9 -10 -9 -8 -8 -9 -9 -8 -9 -9 -9 -9 -8 -9 -8 -6 -7 -7 -7 -7 -7 -8 -8 -8 -8 -7 -7 -7 -7 -7 -7 -8 -8 -8 -8 -8 -9 -9 -9 -9 -9 -9 -10 -10 -9 -10 -10
-10 -9 -8 -8 -9 -8 -9 -9 -9 -9 -10 -9 -9 -8 -8 -8 -9 -7 -7 -7 -7 -7 -7 -8 -8 -8 -8 -8 -8 -7 -8 -8 -8 -8 -8 -9 -9 -9 -9 -9 -10 -10 -10 -10 -10 -10 -10 -10 -10
-11 -8 -8 -8 -9 -10 -9 -8 -9 -9 -9 -10 -10 -9 -9 -9 -9 -8 -7 -7 -8 -7 -7 -8 -8 -8 -8 -8 -8 -8 -8 -8 -8 -8 -8 -9 -9 -9 -9 -10 -10 -10 -11 -10 -10 -10 -10 -10 -10
-11 -9 -8 -9 -11 -11 -11 -9 -9 -9 -9 -10 -10 -9 -9 -9 -9 -9 -9 -8 -8 -8 -8 -8 -8 -8 -9 -9 -9 -8 -8 -8 -8 -9 -9 -9 -9 -9 -10 -10 -10 -11 -11 -11 -10 -10 -10 -10 -11
-11 -10 -10 -10 -11 -12 -11 -10 -10 -9 -9 -9 -10 -9 -9 -9 -9 -9 -10 -9 -8 -8 -8 -9 -9 -9 -9 -9 -9 -9 -8 -8 -8 -8 -9 -9 -9 -9 -10 -10 -10 -11 -11 -11 -10 -10 -11 -11 -11
-11 -10 -10 -10 -11 -11 -12 -12 -11 -10 -9 -9 -9 -10 -9 -9 -9 -8 -8 -9 -9 -9 -8 -9 -9 -8 -9 -9 -9 -9 -8 -9 -8 -9 -9 -9 -9 -9 -10 -10 -10 -11 -11 -10 -10 -10 -11 -11 -11
-10 -10 -10 -10 -10 -11 -12 -12 -12 -11 -10 -10 -9 -9 -9 -9 -10 -9 -9 -8 -8 -8 -9 -8 -9 -9 -8 -9 -10 -9 -8 -9 -9 -9 -9 -9 -9 -10 -10 -10 -10 -11 -11 -10 -10 -11 -11 -11 -11
-11 -11 -11 -11 -10 -11 -11 -11 -12 -9 -11 -11 -10 -10 -10 -10 -10 -10 -9 -9 -9 -8 -8 -8 -8 -8 -8 -9 -9 -10 -9 -9 -9 -9 -9 -9 -9 -10 -10 -10 -11 -11 -11 -10 -11 -11 -11 -11 -11
-11 -11 -11 -11 -11 -11 -12 -11 -11 -10 -11 -11 -11 -11 -12 -11 -10 -10 -10 -9 -9 -9 -8 -8 -8 -8 -8 -8 -9 -9 -9 -9 -9 -9 -10 -10 -10 -10 -10 -10 -11 -11 -11 -10 -11 -11 -11 -11 -11
-12 -11 -11 -12 -12 -12 -13 -9 -10 -11 -11 -12 -11 -11 -12 -12 -12 -11 -11 -10 -10 -9 -9 -9 -10 -9 -9 -9 -9 -10 -10 -9 -9 -9 -9 -9 -10 -10 -10 -10 -10 -10 -11 -10 -11 -11 -11 -11 -11
-12 -11 -12 -12 -13 -13 -12 -9 -10 -11 -11 -11 -12 -12 -12 -12 -12 -12 -11 -11 -11 -10 -9 -9 -9 -9 -8 -10 -10 -10 -10 -9 -9 -9 -9 -9 -10 -10 -10 -10 -11 -11 -10 -10 -11 -11 -11 -11 -11
-12 -11 -11 -12 -13 -12 -12 -10 -10 -10 -10 -10 -10 -10 -11 -11 -12 -12 -12 -12 -11 -11 -10 -10 -9 -9 -9 -8 -9 -10 -10 -9 -10 -9 -9 -9 -9 -10 -10 -10 -11 -11 -11 -10 -10 -10 -11 -11 -11
-12 -12 -12 -12 -12 -12 -12 -10 -10 -10 -10 -10 -10 -10 -10 -10 -10 -12 -12 -13 -12 -11 -11 -11 -10 -10 -9 -10 -9 -10 -9 -9 -9 -9 -9 -9 -10 -10 -10 -10 -11 -11 -10 -10 -10 -11 -10 -11 -11
-13 -13 -13 -13 -12 -12 -12 -10 -10 -11 -11 -11 -10 -10 -10 -11 -10 -10 -11 -12 -13 -12 -12 -11 -10 -10 -10 -10 -10 -9 -8 -8 -9 -10 -10 -10 -10 -10 -10 -11 -11 -11 -10 -11 -11 -11 -11 -11 -11
-14 -14 -13 -13 -13 -13 -13 -11 -11 -11 -10 -11 -11 -11 -11 -11 -10 -11 -11 -12 -12 -13 -13 -12 -11 -10 -10 -9 -9 -9 -9 -9 -10 -10 -10 -10 -9 -10 -10 -11 -11 -11 -10 -11 -11 -11 -11 -11 -11
-15 -15 -15 -14 -14 -13 -14 -11 -11 -11 -11 -11 -11 -11 -11 -11 -11 -11 -11 -11 -12 -12 -13 -12 -12 -12 -10 -10 -10 -9 -9 -9 -10 -10 -10 -10 -9 -10 -10 -11 -11 -10 -10 -11 -10 -11 -12 -11 -11
-15 -16 -16 -16 -15 -15 -14 -15 -11 -12 -11 -12 -12 -11 -11 -11 -12 -11 -11 -11 -11 -11 -11 -12 -12 -11 -11 -11 -10 -9 -9 -10 -10 -10 -9 -10 -10 -10 -11 -11 -10 -10 -10 -11 -10 -11 -12 -11 -11
-18 -17 -16 -16 -16 -15 -16 -18 -11 -12 -12 -12 -13 -13 -12 -12 -12 -11 -11 -11 -11 -11 -11 -11 -12 -11 -11 -10 -9 -9 -10 -10 -10 -10 -9 -10 -10 -10 -11 -10 -10 -10 -11 -10 -11 -12 -11 -11 -11
-20 -21 -19 -19 -19 -18 -20 -18 -13 -14 -16 -15 -13 -13 -13 -12 -13 -12 -11 -11 -11 -11 -11 -11 -11 -10 -10 -10 -10 -9 -9 -9 -9 -10 -9 -11 -10 -11 -11 -10 -10 -10 -10 -10 -11 -11 -11 -11 -11
-19 -21 -22 -22 -21 -20 -20 -19 -18 -19 -18 -18 -15 -13 -13 -14 -13 -13 -12 -12 -12 -11 -11 -11 -10 -10 -10 -10 -9 -9 -9 -10 -10 -9 -9 -10 -11 -11 -9 -10 -10 -10 -10 -11 -11 -11 -11 -11 -11
-20 -20 -21 -22 -21 -21 -20 -19 -20 -20 -19 -19 -19 -18 -17 -14 -14 -13 -13 -14 -12 -11 -10 -11 -10 -10 -10 -10 -9 -9 -9 -9 -9 -9 -9 -10 -10 -10 -10 -10 -10 -10 -10 -11 -11 -11 -11 -11 -12
-20 -21 -21 -22 -21 -21 -20 -20 -20 -20 -20 -20 -20 -19 -18 -17 -14 -14 -16 -16 -13 -12 -11 -11 -11 -10 -10 -10 -10 -10 -9 -9 -9 -9 -10 -10 -10 -10 -10 -10 -10 -10 -11 -10 -10 -11 -11 -11 -11
-21 -21 -22 -22 -22 -21 -21 -20 -20 -20 -20 -20 -20 -20 -19 -18 -16 -16 -17 -15 -13 -12 -12 -11 -11 -10 -10 -10 -10 -10 -10 -9 -10 -10 -9 -10 -10 -10 -10 -10 -10 -10 -10 -10 -11 -11 -11 -11 -11
-21 -22 -22 -22 -22 -22 -22 -19 -20 -20 -20 -19 -19 -19 -19 -19 -17 -17 -17 -16 -14 -13 -12 -11 -11 -11 -10 -10 -10 -10 -10 -10 -10 -9 -10 -10 -10 -10 -10 -10 -10 -10 -10 -11 -11 -11 -11 -11 -11

GFSSGP_500_temp_063.txt.gz
Temp
-8 -8 -8 -7 -7 -6 -6 -6 -6 -7 -8 -8 -8 -8 -8 -8 -8 -7 -7 -7 -7 -7 -7 -7 -7 -7 -6 -6 -6 -6 -6 -5 -6 -6 -6 -6 -6 -5 -5 -5 -6 -6 -6 -6 -6 -6 -6 -6 -6
-8 -8 -8 -8 -7 -6 -6 -6 -6 -7 -7 -8 -8 -8 -8 -7 -8 -8 -8 -8 -8 -7 -8 -7 -7 -7 -6 -7 -7 -6 -6 -6 -6 -6 -6 -6 -6 -6 -6 -6 -6 -6 -6 -6 -7 -7 -7 -7 -7
-10 -9 -9 -8 -7 -6 -6 -7 -7 -7 -7 -8 -8 -8 -8 -7 -8 -8 -8 -8 -8 -7 -7 -8 -8 -7 -7 -7 -7 -7 -7 -6 -6 -6 -7 -7 -6 -6 -6 -6 -7 -7 -7 -7 -7 -7 -8 -8 -8
-9 -10 -10 -8 -8 -7 -7 -7 -7 -7 -8 -8 -8 -8 -8 -8 -9 -8 -8 -8 -8 -8 -7 -8 -8 -7 -7 -7 -7 -7 -7 -7 -7 -7 -7 -7 -7 -7 -7 -7 -7 -7 -7 -7 -7 -8 -8 -8 -9
-11 -10 -10 -9 -8 -7 -8 -7 -7 -8 -8 -8 -8 -8 -7 -8 -9 -8 -8 -8 -8 -8 -8 -8 -8 -7 -7 -7 -8 -8 -7 -7 -7 -7 -7 -7 -7 -8 -7 -8 -8 -8 -8 -8 -8 -8 -8 -9 -9
-11 -11 -10 -10 -9 -8 -8 -8 -8 -8 -8 -8 -8 -8 -8 -9 -9 -9 -8 -8 -8 -8 -8 -8 -8 -8 -8 -8 -8 -8 -8 -8 -8 -8 -8 -8 -8 -8 -8 -8 -9 -9 -8 -8 -8 -8 -9 -10 -10
-11 -10 -10 -10 -10 -8 -8 -8 -8 -9 -9 -9 -8 -8 -9 -9 -9 -8 -8 -8 -8 -8 -8 -8 -8 -8 -8 -8 -8 -8 -8 -8 -8 -8 -8 -8 -8 -8 -8 -9 -9 -9 -9 -9 -9 -9 -10 -10 -10
-11 -10 -10 -10 -11 -10 -9 -9 -9 -9 -9 -9 -8 -8 -9 -9 -9 -8 -7 -7 -8 -8 -8 -8 -8 -8 -8 -8 -8 -8 -8 -8 -8 -8 -8 -9 -9 -9 -9 -9 -10 -10 -10 -10 -9 -10 -10 -10 -10
-12 -10 -9 -10 -11 -11 -10 -9 -9 -9 -10 -9 -8 -8 -8 -9 -9 -9 -9 -8 -8 -8 -8 -8 -8 -8 -9 -9 -8 -8 -9 -8 -8 -8 -9 -9 -9 -9 -9 -10 -10 -10 -10 -10 -10 -10 -11 -11 -11
-12 -10 -9 -11 -12 -11 -10 -9 -9 -9 -10 -10 -9 -9 -8 -8 -8 -10 -9 -9 -9 -9 -9 -8 -8 -9 -9 -9 -9 -9 -9 -9 -9 -9 -9 -9 -9 -9 -10 -10 -10 -10 -10 -10 -10 -11 -11 -11 -11
-11 -10 -10 -11 -12 -12 -11 -11 -10 -9 -9 -10 -10 -9 -8 -9 -8 -9 -9 -9 -9 -9 -8 -9 -8 -9 -9 -9 -10 -9 -9 -9 -9 -9 -9 -9 -9 -10 -10 -10 -10 -11 -10 -10 -10 -11 -11 -11 -11
-11 -11 -12 -11 -12 -12 -12 -12 -11 -10 -9 -10 -10 -9 -8 -8 -9 -8 -9 -9 -8 -8 -9 -9 -8 -9 -9 -9 -10 -9 -9 -9 -9 -9 -9 -9 -9 -10 -10 -10 -10 -11 -11 -11 -11 -11 -11 -11 -11
-11 -11 -11 -12 -12 -11 -12 -12 -12 -10 -9 -11 -10 -10 -10 -9 -8 -8 -8 -10 -9 -8 -8 -9 -8 -9 -9 -10 -9 -10 -9 -9 -10 -9 -9 -9 -10 -10 -10 -11 -11 -11 -11 -10 -11 -11 -11 -11 -11
-12 -12 -12 -12 -12 -12 -12 -12 -12 -9 -10 -11 -12 -11 -11 -10 -10 -9 -8 -9 -9 -9 -9 -9 -8 -9 -9 -10 -10 -9 -10 -9 -10 -10 -9 -9 -10 -10 -10 -11 -11 -11 -11 -11 -11 -10 -11 -11 -11
-12 -12 -13 -13 -13 -12 -13 -11 -10 -11 -12 -10 -12 -12 -11 -11 -10 -10 -9 -9 -9 -9 -10 -9 -9 -9 -10 -10 -10 -9 -10 -10 -10 -10 -10 -10 -10 -10 -11 -11 -11 -11 -11 -11 -11 -11 -11 -11 -11
-13 -13 -13 -13 -13 -12 -12 -9 -11 -11 -12 -11 -10 -12 -12 -11 -11 -11 -11 -10 -10 -9 -10 -10 -10 -9 -9 -9 -9 -9 -10 -10 -10 -10 -10 -10 -10 -10 -11 -11 -11 -11 -11 -11 -11 -11 -11 -11 -11
-13 -13 -12 -12 -13 -12 -12 -10 -11 -11 -11 -11 -10 -11 -11 -12 -11 -11 -11 -11 -11 -11 -10 -10 -10 -10 -9 -9 -9 -9 -10 -9 -10 -10 -10 -10 -10 -10 -10 -11 -11 -11 -11 -11 -11 -12 -11 -11 -11
-13 -12 -12 -12 -12 -12 -12 -10 -10 -11 -11 -11 -11 -11 -11 -11 -12 -11 -12 -12 -12 -12 -11 -11 -10 -10 -10 -10 -9 -9 -9 -9 -10 -11 -10 -10 -10 -10 -10 -10 -10 -11 -11 -12 -11 -11 -11 -11 -11
-13 -13 -13 -13 -13 -12 -12 -11 -11 -11 -11 -11 -10 -11 -11 -11 -11 -11 -12 -12 -13 -12 -12 -12 -11 -11 -10 -10 -10 -9 -10 -10 -10 -10 -11 -10 -10 -10 -10 -10 -10 -11 -11 -11 -11 -11 -11 -11 -11
-13 -13 -13 -13 -13 -12 -12 -11 -11 -11 -11 -11 -11 -11 -11 -11 -11 -12 -11 -11 -12 -12 -12 -12 -12 -12 -11 -11 -10 -10 -11 -10 -11 -11 -10 -10 -10 -10 -9 -10 -10 -11 -12 -12 -12 -11 -11 -11 -11
-14 -14 -13 -13 -13 -13 -12 -10 -11 -11 -11 -11 -11 -11 -11 -11 -11 -11 -11 -12 -12 -13 -13 -12 -11 -11 -11 -11 -11 -10 -10 -10 -10 -10 -11 -11 -10 -10 -9 -10 -10 -11 -11 -11 -12 -11 -11 -11 -11
-15 -15 -14 -14 -13 -13 -13 -11 -11 -11 -11 -12 -11 -11 -11 -11 -11 -11 -11 -11 -11 -12 -12 -12 -11 -11 -11 -11 -11 -11 -11 -11 -10 -11 -11 -11 -10 -10 -10 -10 -11 -11 -11 -11 -12 -11 -11 -11 -11
-16 -15 -15 -15 -14 -13 -13 -13 -9 -12 -12 -12 -13 -12 -12 -11 -11 -11 -11 -11 -11 -11 -11 -11 -11 -11 -11 -11 -11 -10 -10 -11 -11 -10 -10 -10 -11 -11 -10 -10 -11 -11 -11 -11 -11 -11 -11 -11 -11
-16 -15 -15 -15 -15 -14 -16 -15 -10 -11 -12 -12 -12 -12 -12 -12 -11 -11 -11 -11 -11 -11 -11 -11 -11 -12 -11 -11 -11 -10 -10 -10 -11 -10 -10 -11 -11 -10 -11 -11 -11 -11 -11 -11 -11 -11 -11 -11 -11
-18 -18 -17 -16 -16 -15 -16 -16 -12 -12 -14 -13 -12 -12 -12 -12 -12 -11 -11 -11 -11 -11 -11 -11 -11 -11 -12 -12 -10 -10 -10 -10 -10 -10 -10 -11 -12 -11 -11 -11 -11 -11 -11 -11 -11 -11 -11 -11 -11
-19 -19 -19 -18 -18 -18 -17 -16 -14 -15 -16 -17 -14 -13 -13 -12 -12 -11 -11 -11 -11 -11 -11 -11 -11 -11 -11 -11 -11 -11 -10 -10 -10 -11 -10 -11 -11 -11 -11 -10 -11 -11 -11 -11 -11 -11 -11 -11 -11
-19 -19 -19 -19 -20 -20 -19 -19 -19 -19 -19 -20 -19 -16 -15 -14 -13 -12 -11 -11 -11 -11 -11 -11 -11 -11 -11 -10 -11 -11 -11 -11 -10 -10 -10 -10 -9 -10 -10 -11 -11 -10 -11 -11 -11 -11 -11 -11 -11
-19 -19 -19 -20 -20 -21 -20 -20 -20 -20 -20 -20 -20 -20 -19 -18 -15 -13 -13 -12 -11 -11 -11 -11 -11 -11 -11 -11 -11 -11 -11 -11 -10 -10 -10 -10 -10 -10 -10 -10 -10 -10 -11 -11 -11 -11 -11 -11 -11
-20 -19 -20 -20 -21 -21 -20 -19 -20 -20 -20 -20 -20 -19 -19 -19 -18 -17 -16 -15 -12 -12 -12 -11 -11 -11 -11 -11 -11 -11 -11 -11 -10 -10 -10 -10 -10 -10 -10 -10 -10 -10 -11 -11 -11 -11 -11 -11 -11
-20 -20 -20 -20 -21 -21 -21 -19 -19 -20 -20 -20 -20 -20 -19 -19 -18 -18 -18 -18 -14 -13 -12 -11 -11 -11 -11 -11 -11 -11 -11 -10 -10 -9 -10 -10 -10 -10 -9 -10 -11 -11 -11 -11 -11 -11 -11 -11 -11

GFSSGP_500_temp_069.txt.gz
Temp
-8 -7 -7 -6 -6 -6 -6 -6 -7 -7 -7 -8 -8 -8 -9 -8 -7 -7 -8 -8 -8 -8 -8 -8 -8 -8 -7 -7 -7 -6 -6 -6 -6 -6 -6 -6 -6 -6 -6 -6 -6 -6 -6 -6 -6 -5 -6 -6 -6
-8 -8 -8 -7 -7 -6 -6 -6 -7 -8 -8 -8 -9 -9 -9 -8 -8 -8 -8 -7 -7 -8 -8 -8 -8 -8 -8 -8 -7 -7 -6 -6 -6 -6 -6 -6 -6 -6 -6 -6 -6 -6 -6 -6 -6 -6 -6 -6 -6
-9 -8 -8 -8 -7 -7 -6 -6 -7 -8 -8 -8 -8 -8 -9 -9 -9 -8 -8 -8 -7 -8 -8 -8 -8 -8 -8 -8 -8 -8 -7 -7 -7 -7 -7 -7 -6 -6 -6 -6 -6 -6 -6 -6 -7 -7 -7 -7 -6
-9 -9 -9 -8 -8 -9 -7 -7 -8 -8 -8 -8 -8 -8 -9 -9 -9 -9 -8 -8 -7 -8 -9 -8 -8 -8 -8 -8 -8 -8 -7 -7 -7 -7 -7 -7 -7 -7 -7 -7 -7 -7 -7 -7 -7 -7 -7 -7 -7
-10 -9 -9 -8 -8 -9 -10 -8 -8 -8 -8 -8 -8 -8 -8 -9 -9 -9 -8 -8 -8 -8 -9 -9 -8 -8 -8 -8 -8 -8 -8 -7 -7 -7 -7 -7 -7 -7 -7 -7 -7 -7 -7 -7 -7 -8 -8 -8 -8
-10 -10 -9 -9 -10 -9 -10 -8 -8 -9 -9 -8 -8 -8 -8 -9 -9 -9 -9 -8 -8 -8 -9 -9 -8 -8 -8 -8 -8 -8 -8 -8 -8 -8 -8 -8 -8 -8 -8 -8 -8 -8 -8 -8 -8 -8 -8 -8 -8
-11 -11 -10 -10 -11 -10 -9 -9 -9 -9 -9 -9 -9 -8 -8 -9 -9 -9 -9 -8 -8 -9 -9 -8 -8 -8 -8 -8 -9 -9 -9 -8 -8 -8 -8 -8 -8 -8 -8 -8 -8 -8 -8 -8 -8 -8 -8 -8 -8
-12 -12 -11 -11 -11 -11 -10 -10 -10 -10 -9 -9 -10 -9 -9 -9 -9 -9 -9 -8 -8 -9 -9 -8 -8 -9 -9 -8 -9 -9 -9 -9 -8 -8 -8 -8 -9 -8 -8 -8 -9 -9 -9 -9 -9 -9 -9 -9 -9
-13 -12 -11 -11 -11 -11 -12 -10 -9 -10 -10 -9 -10 -10 -9 -9 -9 -9 -9 -8 -8 -9 -9 -9 -9 -9 -9 -9 -9 -9 -9 -9 -9 -9 -8 -9 -9 -9 -8 -9 -9 -9 -9 -9 -9 -9 -9 -9 -9
-13 -13 -12 -12 -12 -12 -11 -10 -10 -10 -10 -10 -10 -11 -10 -10 -10 -10 -9 -9 -8 -9 -9 -9 -9 -9 -10 -9 -9 -10 -10 -9 -10 -9 -9 -9 -9 -9 -9 -9 -9 -9 -10 -10 -10 -9 -10 -10 -10
-13 -13 -13 -12 -12 -12 -12 -11 -10 -11 -11 -11 -11 -11 -11 -10 -10 -9 -10 -10 -9 -9 -9 -9 -9 -10 -10 -10 -10 -10 -10 -10 -10 -9 -9 -9 -10 -10 -10 -9 -10 -10 -10 -10 -10 -10 -10 -10 -11
-13 -13 -13 -12 -13 -13 -12 -12 -11 -11 -11 -12 -12 -11 -11 -11 -10 -9 -10 -10 -9 -8 -9 -10 -10 -10 -10 -10 -10 -10 -10 -10 -10 -10 -10 -10 -10 -10 -10 -10 -10 -10 -11 -11 -11 -11 -11 -10 -11
-13 -13 -13 -13 -13 -13 -13 -11 -11 -11 -13 -12 -12 -12 -11 -10 -10 -10 -10 -10 -10 -9 -8 -9 -9 -9 -9 -10 -10 -10 -9 -10 -10 -10 -10 -11 -10 -10 -10 -10 -10 -11 -11 -12 -11 -11 -11 -11 -11
-13 -13 -13 -12 -12 -13 -13 -12 -12 -12 -12 -13 -13 -12 -11 -11 -10 -10 -10 -9 -10 -10 -9 -8 -8 -9 -9 -10 -10 -9 -10 -10 -9 -10 -10 -10 -11 -11 -11 -10 -10 -11 -11 -12 -12 -11 -11 -11 -11
-14 -14 -14 -13 -13 -13 -13 -12 -12 -12 -12 -14 -13 -12 -12 -11 -11 -10 -10 -10 -9 -9 -10 -10 -9 -8 -10 -9 -10 -10 -9 -9 -9 -10 -10 -10 -10 -11 -11 -11 -10 -11 -11 -11 -12 -11 -11 -11 -11
-14 -14 -14 -14 -13 -13 -12 -11 -13 -12 -12 -12 -13 -12 -12 -12 -11 -11 -10 -9 -10 -10 -10 -9 -9 -8 -9 -9 -9 -9 -10 -9 -9 -10 -11 -10 -10 -10 -11 -11 -11 -10 -11 -11 -12 -11 -11 -11 -11
-14 -14 -14 -14 -14 -14 -13 -12 -12 -13 -12 -12 -12 -13 -12 -12 -11 -11 -11 -11 -10 -10 -10 -10 -10 -9 -9 -8 -8 -9 -9 -10 -10 -10 -10 -10 -10 -10 -10 -10 -10 -9 -11 -12 -11 -11 -11 -11 -11
-14 -14 -14 -14 -14 -14 -13 -13 -13 -13 -14 -13 -12 -12 -12 -12 -12 -11 -12 -11 -11 -10 -10 -9 -9 -9 -10 -10 -9 -9 -9 -9 -10 -10 -10 -11 -11 -10 -10 -10 -10 -10 -8 -10 -10 -10 -11 -11 -12
-15 -14 -14 -14 -14 -14 -14 -13 -13 -13 -13 -13 -15 -13 -12 -12 -12 -12 -12 -12 -12 -11 -11 -11 -11 -11 -9 -9 -10 -10 -9 -9 -10 -10 -10 -10 -11 -10 -9 -9 -10 -9 -11 -11 -11 -11 -12 -11 -12
-15 -15 -15 -15 -14 -14 -14 -13 -13 -13 -13 -13 -13 -13 -14 -14 -13 -13 -13 -12 -12 -12 -11 -12 -11 -11 -11 -11 -11 -11 -11 -10 -10 -10 -10 -10 -11 -10 -10 -11 -10 -10 -11 -11 -12 -12 -12 -12 -11
-16 -15 -15 -15 -15 -14 -14 -13 -13 -13 -13 -13 -13 -13 -13 -13 -13 -13 -13 -13 -12 -12 -12 -11 -11 -12 -11 -11 -11 -11 -11 -11 -11 -10 -10 -10 -11 -11 -11 -11 -10 -11 -11 -12 -12 -12 -12 -12 -11
-16 -15 -15 -15 -15 -14 -14 -13 -13 -13 -13 -13 -13 -13 -13 -13 -12 -13 -12 -13 -13 -13 -12 -12 -11 -12 -12 -12 -11 -11 -11 -11 -12 -11 -11 -12 -11 -11 -11 -11 -11 -11 -12 -12 -12 -12 -13 -12 -12
-16 -16 -15 -15 -15 -14 -15 -13 -13 -13 -14 -14 -14 -13 -13 -13 -12 -12 -12 -12 -12 -11 -12 -13 -12 -12 -12 -12 -11 -11 -11 -11 -11 -11 -11 -11 -12 -11 -11 -11 -11 -12 -12 -12 -12 -13 -12 -12 -12
-16 -16 -16 -16 -16 -15 -15 -14 -13 -15 -14 -14 -14 -14 -13 -13 -12 -12 -12 -12 -12 -12 -12 -12 -12 -13 -12 -12 -13 -12 -11 -11 -12 -12 -12 -12 -12 -12 -12 -12 -12 -12 -12 -12 -12 -12 -12 -11 -11
-18 -17 -17 -17 -17 -16 -16 -15 -15 -15 -14 -14 -14 -14 -13 -13 -13 -12 -11 -11 -11 -12 -12 -12 -11 -11 -12 -12 -12 -12 -11 -11 -11 -11 -12 -12 -12 -12 -11 -12 -12 -12 -12 -12 -12 -12 -12 -11 -11
-19 -18 -19 -18 -17 -17 -16 -15 -16 -16 -15 -14 -14 -14 -14 -14 -13 -13 -13 -12 -12 -11 -11 -12 -12 -12 -11 -11 -11 -10 -11 -11 -11 -12 -12 -12 -12 -12 -12 -12 -12 -12 -12 -12 -12 -11 -11 -11 -11
-19 -20 -19 -19 -19 -18 -17 -17 -17 -17 -17 -16 -15 -15 -14 -14 -13 -13 -13 -12 -12 -12 -11 -11 -11 -11 -12 -12 -11 -10 -10 -10 -10 -12 -12 -12 -12 -12 -12 -12 -12 -12 -12 -11 -11 -11 -10 -10 -11
-20 -20 -20 -20 -19 -18 -17 -17 -17 -18 -18 -18 -18 -18 -17 -15 -14 -13 -13 -13 -12 -12 -12 -11 -11 -11 -11 -11 -11 -11 -10 -11 -11 -11 -11 -10 -11 -12 -12 -11 -12 -12 -11 -11 -10 -10 -10 -10 -11
-21 -21 -20 -20 -20 -19 -18 -17 -17 -18 -19 -19 -19 -19 -18 -18 -18 -18 -18 -15 -12 -12 -12 -12 -11 -11 -11 -11 -11 -10 -10 -10 -11 -11 -11 -11 -11 -11 -11 -10 -11 -10 -11 -11 -11 -10 -10 -10 -10
-21 -21 -21 -20 -20 -19 -19 -17 -19 -20 -19 -19 -19 -18 -19 -19 -19 -19 -19 -19 -19 -17 -14 -12 -11 -11 -11 -11 -10 -10 -10 -10 -11 -11 -11 -11 -11 -11 -11 -10 -10 -10 -11 -11 -11 -10 -10 -10 -11

GFSSGP_500_temp_072.txt.gz
Temp
-8 -8 -7 -7 -7 -6 -7 -6 -6 -7 -7 -7 -7 -8 -8 -7 -7 -8 -8 -7 -8 -7 -7 -8 -8 -8 -7 -7 -7 -6 -6 -6 -5 -5 -5 -5 -5 -5 -5 -5 -5 -5 -6 -6 -6 -6 -6 -6 -6
-8 -8 -8 -7 -7 -7 -7 -6 -7 -7 -7 -7 -7 -8 -9 -9 -8 -7 -8 -8 -8 -8 -7 -7 -8 -8 -8 -7 -7 -7 -7 -6 -6 -5 -5 -6 -6 -6 -6 -6 -6 -6 -6 -6 -6 -6 -6 -6 -6
-8 -8 -8 -8 -7 -7 -8 -6 -8 -7 -7 -7 -7 -7 -8 -8 -8 -7 -8 -8 -8 -8 -8 -8 -8 -8 -7 -7 -7 -7 -7 -7 -6 -6 -6 -6 -6 -6 -6 -6 -6 -6 -6 -6 -6 -7 -7 -6 -6
-9 -9 -9 -8 -9 -8 -8 -7 -8 -8 -8 -8 -7 -8 -8 -9 -8 -8 -8 -8 -8 -7 -8 -8 -8 -8 -8 -7 -7 -7 -7 -7 -7 -7 -6 -6 -6 -7 -6 -6 -6 -6 -6 -6 -7 -7 -7 -7 -7
-9 -9 -9 -8 -9 -9 -8 -8 -8 -9 -9 -8 -8 -8 -8 -9 -9 -9 -9 -8 -8 -7 -7 -8 -7 -7 -8 -8 -7 -7 -8 -8 -7 -7 -7 -7 -7 -7 -7 -7 -7 -7 -7 -7 -7 -7 -7 -7 -8
-10 -9 -9 -9 -9 -9 -9 -9 -9 -9 -9 -9 -9 -8 -8 -8 -8 -9 -9 -9 -8 -8 -8 -8 -8 -7 -8 -8 -8 -8 -8 -8 -8 -7 -7 -7 -7 -7 -7 -7 -7 -8 -7 -7 -8 -8 -8 -8 -8
-9 -9 -9 -9 -9 -9 -9 -9 -9 -10 -10 -9 -9 -9 -8 -8 -8 -8 -9 -9 -8 -8 -8 -8 -8 -8 -8 -8 -8 -8 -8 -8 -8 -8 -8 -8 -8 -8 -8 -8 -8 -8 -8 -8 -8 -8 -9 -9 -9
-10 -10 -10 -9 -9 -9 -9 -9 -9 -9 -10 -10 -9 -9 -8 -8 -8 -9 -9 -9 -9 -8 -8 -8 -8 -8 -8 -8 -9 -8 -8 -8 -9 -9 -8 -8 -8 -8 -8 -8 -8 -8 -8 -9 -8 -8 -8 -9 -9
-11 -11 -10 -10 -9 -10 -10 -9 -9 -9 -10 -11 -10 -10 -9 -8 -8 -9 -9 -9 -9 -9 -8 -8 -9 -8 -8 -8 -9 -9 -8 -9 -9 -9 -9 -8 -9 -8 -9 -9 -9 -9 -9 -9 -9 -9 -9 -9 -9
-11 -11 -11 -11 -11 -11 -11 -11 -10 -9 -10 -11 -11 -10 -10 -9 -9 -9 -9 -9 -9 -9 -8 -8 -9 -9 -8 -9 -9 -9 -9 -9 -8 -9 -9 -9 -9 -9 -9 -9 -9 -9 -9 -10 -10 -10 -9 -9 -10
-11 -11 -12 -13 -12 -12 -12 -11 -12 -10 -10 -11 -12 -11 -10 -9 -9 -9 -10 -10 -10 -9 -9 -8 -8 -9 -9 -9 -10 -9 -9 -9 -9 -9 -9 -9 -9 -9 -9 -10 -10 -10 -9 -10 -10 -10 -10 -10 -10
-12 -12 -12 -13 -13 -13 -12 -12 -11 -11 -11 -11 -12 -12 -11 -11 -10 -10 -10 -9 -9 -10 -9 -8 -9 -9 -10 -10 -10 -10 -10 -9 -9 -10 -10 -10 -10 -10 -10 -10 -10 -10 -10 -10 -11 -10 -10 -10 -10
-13 -13 -12 -13 -13 -13 -13 -12 -13 -12 -12 -12 -11 -13 -11 -11 -11 -10 -10 -9 -9 -10 -9 -9 -9 -10 -10 -10 -9 -9 -10 -10 -9 -9 -10 -10 -10 -10 -10 -10 -10 -10 -10 -10 -11 -11 -10 -10 -10
-13 -13 -13 -13 -13 -13 -13 -13 -14 -12 -13 -12 -11 -13 -11 -11 -11 -10 -10 -10 -10 -9 -9 -9 -9 -9 -9 -9 -9 -9 -10 -10 -9 -10 -10 -10 -10 -11 -11 -10 -10 -10 -10 -10 -10 -11 -10 -10 -10
-13 -13 -13 -13 -13 -13 -14 -13 -13 -13 -11 -11 -11 -12 -12 -11 -11 -11 -10 -10 -10 -9 -9 -10 -9 -9 -9 -8 -8 -9 -9 -10 -10 -10 -10 -10 -10 -11 -11 -11 -11 -10 -10 -10 -11 -10 -9 -10 -11
-14 -14 -14 -14 -13 -14 -14 -13 -14 -13 -12 -11 -12 -12 -13 -12 -11 -10 -10 -10 -10 -10 -9 -9 -9 -10 -9 -9 -9 -9 -9 -9 -9 -9 -9 -9 -9 -10 -10 -10 -10 -9 -9 -10 -11 -11 -9 -11 -11
-14 -14 -14 -14 -14 -14 -14 -14 -14 -12 -12 -12 -12 -12 -12 -13 -11 -11 -10 -10 -9 -10 -10 -9 -9 -10 -10 -9 -9 -9 -9 -9 -9 -9 -9 -9 -10 -10 -10 -10 -9 -9 -9 -10 -10 -10 -11 -11 -10
-14 -14 -14 -14 -14 -14 -14 -14 -14 -13 -13 -12 -12 -13 -12 -13 -12 -12 -11 -10 -10 -10 -8 -9 -9 -9 -9 -10 -10 -9 -9 -9 -9 -8 -9 -9 -9 -10 -10 -10 -9 -10 -11 -10 -9 -10 -10 -11 -11
-15 -15 -15 -15 -15 -14 -14 -14 -14 -14 -13 -13 -13 -12 -12 -12 -13 -12 -12 -11 -10 -9 -9 -10 -10 -9 -9 -10 -10 -9 -9 -10 -10 -10 -10 -9 -10 -10 -10 -9 -10 -10 -10 -10 -10 -10 -11 -11 -11
-15 -15 -15 -15 -15 -14 -14 -14 -14 -14 -14 -14 -14 -14 -14 -12 -13 -13 -13 -12 -11 -10 -9 -10 -10 -11 -10 -10 -10 -10 -9 -10 -10 -10 -10 -10 -10 -10 -10 -10 -10 -11 -11 -10 -11 -11 -11 -12 -12
-16 -16 -16 -15 -15 -15 -15 -14 -14 -14 -14 -14 -14 -14 -14 -14 -15 -13 -13 -13 -12 -12 -11 -10 -10 -10 -10 -10 -10 -10 -10 -10 -9 -10 -10 -11 -11 -11 -11 -11 -11 -11 -10 -11 -12 -12 -11 -11 -12
-16 -16 -16 -15 -15 -15 -15 -14 -14 -14 -14 -14 -14 -14 -14 -13 -13 -14 -14 -13 -13 -13 -13 -12 -12 -11 -10 -10 -9 -10 -10 -10 -10 -11 -10 -10 -11 -11 -11 -11 -11 -12 -12 -11 -11 -11 -11 -11 -12
-16 -16 -16 -16 -15 -15 -15 -15 -15 -15 -15 -15 -14 -14 -13 -13 -13 -13 -13 -14 -13 -13 -13 -13 -13 -12 -12 -11 -11 -12 -11 -11 -9 -11 -11 -11 -11 -11 -11 -11 -11 -12 -12 -12 -11 -11 -11 -12 -12
-17 -17 -17 -17 -16 -16 -16 -16 -16 -15 -15 -15 -15 -14 -14 -13 -13 -13 -13 -13 -13 -13 -13 -13 -12 -13 -13 -12 -12 -11 -11 -12 -11 -12 -12 -11 -11 -11 -11 -11 -12 -12 -11 -11 -12 -11 -12 -12 -12
-18 -18 -19 -19 -20 -18 -17 -16 -16 -16 -16 -16 -15 -14 -14 -14 -14 -13 -13 -13 -13 -13 -13 -13 -12 -12 -13 -13 -12 -12 -12 -11 -11 -12 -12 -12 -11 -11 -11 -11 -12 -12 -11 -11 -12 -12 -12 -12 -12
-21 -20 -21 -21 -20 -19 -19 -17 -18 -17 -17 -16 -16 -15 -15 -14 -14 -13 -13 -13 -12 -12 -12 -13 -12 -12 -12 -12 -12 -12 -11 -11 -12 -11 -11 -11 -11 -11 -11 -12 -12 -12 -12 -11 -12 -12 -12 -12 -12
-20 -19 -21 -20 -20 -19 -18 -18 -18 -18 -18 -17 -17 -16 -15 -14 -14 -14 -13 -13 -13 -13 -12 -12 -12 -12 -12 -12 -12 -11 -11 -11 -12 -12 -12 -11 -11 -11 -11 -12 -12 -12 -12 -12 -11 -12 -12 -12 -12
-20 -21 -20 -21 -20 -20 -20 -20 -20 -18 -19 -18 -18 -17 -16 -15 -15 -15 -14 -14 -13 -13 -12 -12 -12 -12 -12 -12 -11 -11 -11 -11 -10 -10 -12 -12 -12 -12 -12 -12 -12 -12 -12 -12 -12 -12 -11 -11 -10
-22 -20 -20 -21 -22 -21 -21 -20 -20 -19 -20 -19 -18 -18 -17 -17 -17 -16 -15 -14 -14 -13 -13 -12 -12 -12 -11 -12 -12 -11 -11 -11 -11 -10 -11 -11 -11 -11 -11 -11 -11 -12 -12 -12 -12 -12 -11 -11 -10
-21 -21 -22 -22 -21 -21 -20 -19 -21 -20 -20 -19 -19 -18 -18 -17 -17 -17 -17 -17 -16 -15 -13 -13 -12 -12 -12 -11 -11 -11 -11 -11 -10 -10 -10 -11 -11 -11 -11 -11 -11 -12 -11 -11 -11 -11 -11 -11 -10

GFSSGP_500_temp_075.txt.gz
Temp
-7 -7 -7 -7 -7 -7 -7 -7 -9 -9 -6 -7 -7 -6 -7 -8 -8 -8 -8 -7 -7 -7 -7 -6 -6 -6 -6 -6 -6 -5 -5 -5 -5 -5 -5 -5 -5 -5 -5 -5 -5 -5 -5 -6 -6 -6 -6 -6 -6
-8 -8 -8 -7 -7 -8 -8 -8 -9 -8 -9 -6 -7 -7 -7 -7 -7 -6 -6 -7 -7 -7 -7 -6 -6 -6 -7 -7 -6 -6 -5 -6 -5 -5 -5 -5 -5 -5 -5 -5 -5 -5 -6 -6 -6 -6 -6 -6 -6
-9 -9 -8 -8 -8 -8 -9 -9 -10 -9 -7 -7 -7 -7 -8 -8 -6 -7 -7 -7 -7 -7 -7 -7 -6 -7 -7 -7 -7 -6 -6 -6 -6 -6 -5 -5 -5 -5 -6 -6 -6 -6 -6 -6 -6 -6 -6 -6 -6
-8 -8 -9 -8 -8 -8 -8 -11 -10 -10 -7 -7 -7 -7 -7 -8 -7 -7 -7 -8 -8 -7 -7 -7 -6 -6 -7 -7 -7 -6 -6 -6 -6 -6 -6 -6 -6 -6 -6 -6 -6 -7 -7 -6 -6 -6 -7 -7 -7
-9 -9 -8 -8 -9 -9 -8 -9 -7 -8 -8 -8 -8 -8 -7 -7 -8 -8 -8 -8 -8 -8 -7 -7 -7 -7 -7 -7 -7 -7 -7 -7 -7 -7 -6 -6 -6 -6 -6 -6 -7 -7 -7 -7 -7 -7 -7 -7 -7
-9 -9 -9 -8 -8 -9 -9 -8 -8 -8 -9 -10 -9 -8 -8 -7 -8 -8 -8 -8 -8 -8 -8 -7 -7 -7 -7 -7 -7 -7 -7 -7 -7 -7 -7 -7 -7 -7 -7 -7 -7 -7 -7 -7 -7 -7 -7 -7 -8
-9 -9 -9 -9 -9 -10 -9 -8 -9 -8 -10 -11 -11 -9 -9 -7 -7 -8 -8 -9 -8 -8 -8 -8 -7 -7 -7 -8 -8 -7 -7 -7 -7 -8 -7 -7 -7 -7 -7 -7 -8 -8 -8 -8 -8 -8 -8 -8 -8
-10 -10 -10 -9 -9 -8 -11 -8 -8 -9 -9 -12 -10 -9 -10 -8 -8 -8 -9 -9 -9 -8 -8 -8 -8 -7 -7 -8 -8 -8 -8 -8 -8 -8 -8 -8 -8 -8 -8 -8 -8 -8 -8 -8 -8 -8 -8 -8 -8
-11 -10 -9 -9 -9 -9 -11 -12 -8 -9 -9 -10 -11 -10 -9 -8 -8 -8 -8 -9 -9 -9 -9 -8 -8 -8 -8 -8 -8 -9 -8 -8 -8 -8 -8 -8 -8 -8 -8 -8 -8 -8 -8 -8 -8 -8 -8 -8 -8
-10 -10 -9 -10 -10 -11 -13 -13 -12 -10 -10 -9 -9 -10 -10 -10 -9 -8 -8 -9 -9 -9 -9 -9 -8 -8 -8 -8 -8 -8 -9 -9 -8 -8 -8 -8 -8 -9 -9 -8 -8 -8 -8 -8 -9 -8 -8 -8 -8
-11 -10 -10 -10 -11 -12 -13 -14 -13 -13 -10 -10 -9 -9 -9 -10 -9 -9 -9 -9 -9 -9 -9 -9 -9 -8 -8 -8 -8 -9 -9 -9 -9 -8 -8 -8 -9 -9 -9 -9 -9 -9 -9 -9 -9 -8 -8 -8 -8
-11 -11 -11 -11 -11 -12 -12 -13 -13 -14 -13 -11 -10 -9 -9 -10 -10 -9 -9 -9 -9 -9 -9 -10 -9 -9 -8 -8 -8 -9 -10 -10 -9 -9 -9 -9 -9 -9 -9 -9 -9 -9 -9 -9 -9 -9 -9 -8 -9
-11 -12 -11 -12 -11 -11 -12 -12 -12 -13 -13 -13 -10 -9 -9 -12 -11 -10 -9 -9 -9 -9 -9 -8 -9 -10 -9 -9 -9 -9 -10 -10 -10 -9 -9 -9 -9 -9 -9 -9 -9 -9 -9 -9 -10 -10 -9 -10 -10
-12 -12 -12 -12 -12 -12 -12 -13 -13 -12 -13 -13 -11 -11 -10 -11 -13 -11 -10 -9 -10 -10 -9 -9 -10 -9 -9 -9 -10 -10 -9 -9 -10 -10 -10 -10 -10 -10 -10 -10 -10 -9 -9 -9 -10 -10 -10 -10 -11
-12 -12 -12 -12 -13 -12 -13 -12 -12 -13 -14 -12 -12 -11 -12 -12 -12 -13 -11 -10 -10 -10 -10 -9 -8 -10 -10 -9 -9 -9 -9 -9 -9 -10 -10 -10 -10 -10 -10 -10 -10 -9 -8 -9 -10 -10 -10 -10 -11
-13 -13 -13 -13 -13 -13 -13 -12 -13 -13 -13 -13 -13 -12 -12 -12 -12 -12 -13 -11 -10 -10 -9 -9 -9 -8 -9 -9 -10 -9 -9 -9 -9 -9 -10 -10 -10 -10 -9 -10 -10 -9 -9 -10 -10 -10 -10 -10 -10
-14 -14 -14 -14 -14 -13 -14 -13 -13 -14 -13 -13 -13 -13 -12 -13 -13 -12 -13 -12 -11 -10 -10 -9 -9 -9 -9 -9 -9 -9 -9 -9 -10 -9 -9 -9 -9 -9 -9 -10 -10 -9 -10 -10 -9 -10 -11 -10 -11
-16 -16 -15 -15 -16 -13 -13 -14 -14 -14 -13 -13 -13 -13 -13 -12 -13 -13 -13 -12 -11 -10 -10 -10 -9 -9 -9 -9 -9 -9 -9 -10 -9 -10 -10 -9 -10 -9 -10 -10 -10 -10 -9 -10 -11 -11 -10 -10 -11
-14 -14 -15 -15 -15 -14 -14 -14 -14 -14 -14 -13 -13 -13 -13 -13 -13 -12 -11 -12 -11 -11 -11 -10 -9 -9 -9 -10 -9 -9 -10 -10 -10 -10 -10 -9 -9 -9 -10 -9 -10 -10 -9 -10 -11 -10 -10 -10 -12
-15 -15 -15 -15 -15 -15 -14 -14 -14 -14 -14 -14 -14 -14 -14 -13 -13 -13 -11 -13 -12 -10 -11 -10 -10 -9 -10 -10 -10 -10 -10 -9 -10 -10 -10 -10 -9 -10 -10 -10 -10 -10 -10 -11 -11 -11 -11 -11 -11
-15 -15 -15 -15 -16 -14 -14 -14 -14 -15 -14 -14 -14 -14 -14 -14 -13 -13 -12 -11 -12 -12 -11 -11 -10 -10 -10 -10 -10 -10 -10 -10 -10 -10 -10 -10 -10 -9 -10 -10 -10 -9 -11 -11 -11 -11 -11 -11 -11
-16 -16 -16 -15 -15 -15 -17 -15 -15 -15 -14 -14 -14 -14 -14 -14 -14 -14 -13 -12 -12 -13 -12 -11 -11 -11 -11 -9 -10 -10 -10 -10 -10 -10 -10 -9 -10 -9 -9 -9 -10 -10 -11 -12 -11 -10 -11 -11 -11
-16 -16 -16 -16 -16 -16 -15 -16 -15 -16 -17 -16 -15 -14 -14 -14 -14 -13 -13 -13 -13 -13 -12 -12 -11 -12 -12 -11 -11 -11 -10 -10 -10 -10 -10 -9 -10 -10 -10 -10 -10 -11 -11 -12 -8 -11 -11 -11 -11
-16 -17 -17 -17 -17 -18 -16 -18 -16 -17 -17 -17 -15 -14 -15 -14 -14 -13 -14 -14 -14 -14 -13 -12 -12 -12 -11 -12 -12 -11 -11 -11 -12 -11 -10 -9 -11 -10 -10 -10 -11 -10 -11 -11 -11 -11 -11 -11 -11
-17 -18 -19 -19 -18 -17 -17 -18 -17 -18 -18 -19 -16 -16 -15 -14 -14 -14 -14 -13 -13 -14 -14 -14 -13 -12 -12 -12 -11 -11 -11 -11 -11 -11 -10 -10 -10 -10 -10 -10 -9 -10 -11 -11 -11 -11 -11 -10 -11
-19 -19 -19 -19 -18 -18 -18 -18 -18 -18 -19 -18 -17 -16 -16 -16 -16 -15 -14 -13 -13 -13 -13 -14 -13 -13 -13 -13 -12 -12 -12 -11 -11 -12 -11 -11 -11 -11 -11 -10 -10 -11 -12 -12 -12 -11 -11 -10 -11
-20 -20 -20 -19 -20 -19 -19 -18 -18 -18 -19 -18 -18 -17 -17 -16 -15 -15 -15 -15 -14 -14 -14 -13 -13 -13 -13 -13 -12 -12 -11 -12 -12 -12 -11 -12 -12 -12 -12 -12 -12 -12 -12 -12 -12 -11 -11 -11 -11
-20 -20 -20 -19 -19 -20 -19 -19 -18 -18 -19 -18 -18 -18 -17 -16 -16 -16 -15 -15 -15 -14 -14 -14 -13 -13 -13 -13 -12 -12 -12 -12 -11 -11 -12 -12 -12 -12 -12 -13 -12 -12 -12 -12 -11 -12 -12 -11 -12
-21 -20 -21 -21 -21 -20 -20 -19 -18 -18 -19 -19 -20 -18 -17 -17 -17 -16 -16 -16 -15 -15 -14 -14 -13 -13 -13 -13 -13 -12 -12 -12 -12 -11 -11 -11 -12 -12 -12 -13 -13 -12 -13 -12 -11 -11 -12 -12 -12
-21 -21 -21 -21 -20 -21 -21 -20 -19 -19 -19 -19 -20 -19 -18 -18 -17 -17 -17 -17 -16 -16 -15 -14 -14 -14 -13 -13 -13 -12 -12 -12 -12 -11 -11 -11 -11 -11 -11 -12 -13 -12 -13 -12 -11 -12 -12 -11 -11